Location: Aciu?a
(46.2833°N, 22.4500°E)
Time: 11:31:20
(UTC+00:00)

ARGOS - Pass Details

Date: 25 October 2021
Orbit: 819 x 835 km, 98.4° (Epoch: 06 December)

Event Time Altitude Azimuth Distance (km) Brightness Sun altitude
Rises 16:20:11 0° 149° (SSE) 3,359 6.1 -9.9°
Reaches altitude 10° 16:22:34 10° 145° (SE) 2,432 5.3 -10.3°
Maximum altitude 16:27:47 52° 70° (ENE) 1,025 3.3 -11.2°
Drops below altitude 10° 16:33:03 10° 355° (N) 2,456 5.6 -12.1°
Sets 16:35:28 0° 351° (N) 3,395 6.4 -12.5°
